• In Uzbekistan
  • List of Countries
  • For 7 days
  • Water Temperature
  • Satellite Maps
  • Weather Map
  • Weather Widgets
  • user-avatar
    Login

    Hourly Weather Khampho

    Today, 20 February, Tuesday

    Time Temperature Precipitation Wind Pressure Humidity
    00:00 +25°C° 0 mm 2 mps 737 mmHg 80%
    01:00 +24°C° 0 mm 2 mps 737 mmHg 84%
    02:00 +24°C° 0 mm 2 mps 737 mmHg 85%
    03:00 +24°C° 0 mm 1 mps 737 mmHg 86%
    04:00 +23°C° 0 mm 1 mps 737 mmHg 87%
    05:00 +23°C° 0 mm 1 mps 737 mmHg 87%
    06:00 +23°C° 0 mm 1 mps 737 mmHg 86%
    07:00 +24°C° 0 mm 1 mps 738 mmHg 86%
    08:00 +27°C° 0 mm 1 mps 738 mmHg 73%
    09:00 +30°C° 0 mm 1 mps 738 mmHg 59%
    10:00 +34°C° 0 mm 1 mps 738 mmHg 46%
    11:00 +33°C° 0 mm 0 mps 738 mmHg 41%
    12:00 +35°C° 0 mm 0 mps 737 mmHg 36%
    13:00 +37°C° 0 mm 0 mps 737 mmHg 31%
    14:00 +36°C° 0 mm 0 mps 736 mmHg 33%
    15:00 +35°C° 0 mm 0 mps 735 mmHg 34%
    16:00 +34°C° 0 mm 0 mps 735 mmHg 36%
    17:00 +34°C° 0 mm 1 mps 735 mmHg 41%
    18:00 +33°C° 0 mm 1 mps 735 mmHg 46%
    19:00 +31°C° 0 mm 1 mps 735 mmHg 51%
    20:00 +30°C° 0 mm 2 mps 736 mmHg 58%
    21:00 +29°C° 0 mm 2 mps 736 mmHg 66%
    22:00 +27°C° 0 mm 2 mps 736 mmHg 73%
    23:00 +27°C° 0 mm 2 mps 736 mmHg 76%

    Tomorrow, 21 February, Wednesday

    Time Temperature Precipitation Wind Pressure Humidity
    00:00 +26°C° 0 mm 2 mps 736 mmHg 79%
    01:00 +25°C° 0 mm 2 mps 736 mmHg 82%
    02:00 +25°C° 0 mm 1 mps 735 mmHg 83%
    03:00 +24°C° 0 mm 1 mps 735 mmHg 84%
    04:00 +24°C° 0 mm 1 mps 735 mmHg 85%
    05:00 +24°C° 0 mm 1 mps 735 mmHg 84%
    06:00 +24°C° 0 mm 1 mps 736 mmHg 82%
    07:00 +25°C° 0 mm 1 mps 736 mmHg 80%
    08:00 +28°C° 0 mm 1 mps 737 mmHg 68%
    09:00 +31°C° 0 mm 1 mps 737 mmHg 55%
    10:00 +34°C° 0 mm 1 mps 738 mmHg 42%
    11:00 +35°C° 0 mm 1 mps 737 mmHg 38%
    12:00 +37°C° 0 mm 1 mps 737 mmHg 34%
    13:00 +39°C° 0 mm 1 mps 736 mmHg 30%
    14:00 +39°C° 0 mm 1 mps 735 mmHg 32%
    15:00 +37°C° 0 mm 1 mps 735 mmHg 34%
    16:00 +34°C° 0 mm 0 mps 734 mmHg 35%
    17:00 +34°C° 0 mm 1 mps 734 mmHg 40%
    18:00 +34°C° 0 mm 2 mps 735 mmHg 45%
    19:00 +31°C° 0 mm 2 mps 735 mmHg 50%
    20:00 +30°C° 0 mm 2 mps 735 mmHg 58%
    21:00 +28°C° 0 mm 2 mps 736 mmHg 66%
    22:00 +27°C° 0 mm 3 mps 736 mmHg 74%
    23:00 +26°C° 0 mm 2 mps 736 mmHg 77%

    Day after tomorrow, 22 February, Thursday

    Time Temperature Precipitation Wind Pressure Humidity
    00:00 +25°C° 0 mm 2 mps 736 mmHg 79%
    01:00 +25°C° 0 mm 2 mps 736 mmHg 81%
    02:00 +24°C° 0 mm 2 mps 735 mmHg 83%
    03:00 +24°C° 0 mm 2 mps 735 mmHg 84%
    04:00 +24°C° 0 mm 2 mps 735 mmHg 86%
    05:00 +24°C° 0.2 mm 2 mps 736 mmHg 86%
    06:00 +24°C° 0.2 mm 2 mps 736 mmHg 86%
    07:00 +24°C° 0.2 mm 2 mps 737 mmHg 85%
    08:00 +26°C° 0.4 mm 2 mps 738 mmHg 76%
    09:00 +28°C° 0.4 mm 2 mps 738 mmHg 68%
    10:00 +30°C° 0.4 mm 2 mps 739 mmHg 59%
    11:00 +32°C° 0.3 mm 1 mps 738 mmHg 54%
    12:00 +34°C° 0.3 mm 1 mps 737 mmHg 49%
    13:00 +34°C° 0.3 mm 0 mps 737 mmHg 45%
    14:00 +35°C° 0.5 mm 1 mps 736 mmHg 48%
    15:00 +35°C° 0.5 mm 2 mps 736 mmHg 51%
    16:00 +34°C° 0.5 mm 3 mps 735 mmHg 54%
    17:00 +31°C° 0.4 mm 3 mps 736 mmHg 61%
    18:00 +29°C° 0.4 mm 3 mps 736 mmHg 67%
    19:00 +27°C° 0.4 mm 3 mps 737 mmHg 74%
    20:00 +27°C° 0.1 mm 3 mps 738 mmHg 76%
    21:00 +26°C° 0.1 mm 3 mps 738 mmHg 77%
    22:00 +26°C° 0.1 mm 3 mps 739 mmHg 79%
    23:00 +25°C° 0 mm 3 mps 739 mmHg 80%

    23 February, Friday

    Time Temperature Precipitation Wind Pressure Humidity
    00:00 +25°C° 0 mm 3 mps 738 mmHg 81%
    01:00 +25°C° 0 mm 3 mps 738 mmHg 82%
    02:00 +25°C° 0 mm 3 mps 738 mmHg 82%
    03:00 +25°C° 0 mm 3 mps 738 mmHg 82%
    04:00 +24°C° 0 mm 2 mps 738 mmHg 81%
    05:00 +25°C° 0 mm 2 mps 738 mmHg 81%
    06:00 +25°C° 0 mm 2 mps 739 mmHg 80%
    07:00 +25°C° 0 mm 2 mps 739 mmHg 80%
    08:00 +26°C° 0 mm 3 mps 740 mmHg 73%
    09:00 +28°C° 0 mm 3 mps 740 mmHg 66%
    10:00 +29°C° 0 mm 3 mps 741 mmHg 58%
    11:00 +31°C° 0.1 mm 3 mps 740 mmHg 54%
    12:00 +33°C° 0.1 mm 3 mps 739 mmHg 49%
    13:00 +34°C° 0.1 mm 3 mps 739 mmHg 45%
    14:00 +34°C° 0.1 mm 3 mps 738 mmHg 47%
    15:00 +33°C° 0.1 mm 3 mps 737 mmHg 50%
    16:00 +32°C° 0.1 mm 4 mps 737 mmHg 52%
    17:00 +29°C° 0 mm 3 mps 737 mmHg 59%
    18:00 +28°C° 0 mm 3 mps 738 mmHg 65%
    19:00 +26°C° 0 mm 3 mps 738 mmHg 71%
    20:00 +25°C° 0.1 mm 3 mps 739 mmHg 74%
    21:00 +25°C° 0.1 mm 3 mps 739 mmHg 76%
    22:00 +24°C° 0.1 mm 3 mps 740 mmHg 78%
    23:00 +24°C° 0 mm 3 mps 739 mmHg 80%

    24 February, Saturday

    Time Temperature Precipitation Wind Pressure Humidity
    00:00 +24°C° 0 mm 3 mps 739 mmHg 81%
    01:00 +24°C° 0 mm 2 mps 739 mmHg 82%
    02:00 +24°C° 0 mm 2 mps 739 mmHg 83%
    03:00 +23°C° 0 mm 2 mps 738 mmHg 83%
    04:00 +23°C° 0 mm 2 mps 738 mmHg 83%
    05:00 +23°C° 0 mm 2 mps 739 mmHg 83%
    06:00 +23°C° 0 mm 2 mps 740 mmHg 83%
    07:00 +24°C° 0 mm 2 mps 740 mmHg 83%
    08:00 +26°C° 0 mm 2 mps 740 mmHg 73%
    09:00 +28°C° 0 mm 2 mps 741 mmHg 63%
    10:00 +31°C° 0 mm 2 mps 741 mmHg 53%
    11:00 +32°C° 0 mm 2 mps 741 mmHg 49%
    12:00 +34°C° 0 mm 1 mps 740 mmHg 44%
    13:00 +36°C° 0 mm 1 mps 739 mmHg 39%
    14:00 +35°C° 0 mm 1 mps 739 mmHg 42%
    15:00 +35°C° 0 mm 2 mps 738 mmHg 44%
    16:00 +34°C° 0 mm 2 mps 738 mmHg 46%
    17:00 +31°C° 0 mm 2 mps 738 mmHg 53%
    18:00 +29°C° 0 mm 3 mps 738 mmHg 59%
    19:00 +28°C° 0 mm 3 mps 739 mmHg 65%
    20:00 +27°C° 0 mm 3 mps 739 mmHg 69%
    21:00 +26°C° 0 mm 3 mps 739 mmHg 72%
    22:00 +25°C° 0 mm 3 mps 739 mmHg 76%
    23:00 +25°C° 0 mm 3 mps 739 mmHg 78%

    25 February, Sunday

    Time Temperature Precipitation Wind Pressure Humidity
    00:00 +24°C° 0 mm 2 mps 739 mmHg 80%
    01:00 +24°C° 0 mm 2 mps 739 mmHg 82%
    02:00 +23°C° 0 mm 2 mps 738 mmHg 83%
    03:00 +23°C° 0 mm 2 mps 738 mmHg 84%
    04:00 +23°C° 0 mm 2 mps 738 mmHg 86%
    05:00 +23°C° 0 mm 2 mps 739 mmHg 85%
    06:00 +23°C° 0 mm 2 mps 739 mmHg 84%
    07:00 +23°C° 0 mm 2 mps 739 mmHg 84%
    08:00 +26°C° 0 mm 2 mps 740 mmHg 73%
    09:00 +28°C° 0 mm 3 mps 740 mmHg 62%
    10:00 +31°C° 0 mm 3 mps 740 mmHg 51%
    11:00 +33°C° 0 mm 3 mps 740 mmHg 47%
    12:00 +34°C° 0 mm 3 mps 739 mmHg 43%
    13:00 +36°C° 0 mm 3 mps 738 mmHg 38%
    14:00 +35°C° 0 mm 3 mps 737 mmHg 40%
    15:00 +35°C° 0 mm 3 mps 737 mmHg 41%
    16:00 +35°C° 0 mm 4 mps 737 mmHg 42%
    17:00 +32°C° 0 mm 4 mps 737 mmHg 50%
    18:00 +29°C° 0 mm 4 mps 737 mmHg 58%
    19:00 +27°C° 0 mm 4 mps 737 mmHg 66%
    20:00 +26°C° 0 mm 4 mps 738 mmHg 70%
    21:00 +25°C° 0 mm 3 mps 738 mmHg 74%
    22:00 +24°C° 0 mm 3 mps 738 mmHg 77%
    23:00 +24°C° 0 mm 3 mps 738 mmHg 79%
    Show more